Gbstr 26 Del rocket - Orbit

View from above orbital plane
View from above orbital plane
View from above satellite
View from above satellite

Ground track
Ground track

The orbit data is extracted from the following two-line orbital elements,

1 25876U 99041E   13143.26992106  .00002317  00000-0  44527-3 0  1123
2 25876 051.7658 048.3148 0546592 025.4545 123.5404 14.00854111706047
Epoch (UTC): 23 May 2013 06:28:41
Eccentricity: 0.0546592
inclination: 51.7658°
perigee height: 493 km
apogee height: 1288 km
right ascension of ascending node: 48.3148°
argument of perigee: 25.4545°
revolutions per day: 14.00854111
mean anomaly at epoch: 123.5404°
orbit number at epoch: 70604

The dashed part of the orbit path shows where the satellite is in the earth's shadow,  

Developed and maintained by Chris Peat, Heavens-Above GmbH. Please read the updated FAQ before sending e-mail. Imprint. DLR